Time,TemperatureF,DewpointF,PressureIn,WindDirection,WindDirectionDegrees,WindSpeedMPH,WindSpeedGustMPH,Humidity,HourlyPrecipIn,Conditions,Clouds,dailyrainin,SoftwareType,DateUTC
2013-03-22 00:04:00,26.0,18.0,29.98,NNW,328,5.0,12.0,71,0.00,,,0.00,,2013-03-22 04:04:00,
2013-03-22 00:12:00,26.0,18.0,29.98,NNW,328,5.0,12.0,71,0.00,,,0.00,,2013-03-22 04:12:00,
2013-03-22 00:23:00,26.0,18.0,29.98,West,276,4.0,10.0,71,0.00,,,0.00,,2013-03-22 04:23:00,
2013-03-22 00:32:00,26.0,18.0,29.98,West,276,6.0,9.0,71,0.00,,,0.00,,2013-03-22 04:32:00,
2013-03-22 00:43:00,26.0,18.0,29.98,West,276,6.0,9.0,71,0.00,,,0.00,,2013-03-22 04:43:00,
2013-03-22 00:52:00,26.0,18.0,29.98,WNW,298,4.0,9.0,71,0.00,,,0.00,,2013-03-22 04:52:00,
2013-03-22 01:02:00,26.0,18.0,29.98,NW,319,4.0,11.0,71,0.00,,,0.00,,2013-03-22 05:02:00,
2013-03-22 01:12:00,26.0,18.0,29.98,NW,319,4.0,11.0,71,0.00,,,0.00,,2013-03-22 05:12:00,
2013-03-22 01:22:00,26.0,18.0,29.98,WNW,298,5.0,9.0,71,0.00,,,0.00,,2013-03-22 05:22:00,
2013-03-22 01:32:00,26.0,18.0,29.98,WNW,299,5.0,10.0,71,0.00,,,0.00,,2013-03-22 05:32:00,
2013-03-22 01:42:00,26.0,18.0,29.98,WNW,299,5.0,10.0,71,0.00,,,0.00,,2013-03-22 05:42:00,
2013-03-22 01:52:00,26.0,18.0,29.98,West,281,6.0,11.0,71,0.00,,,0.00,,2013-03-22 05:52:00,
2013-03-22 02:02:00,26.0,18.0,29.99,WNW,297,4.0,11.0,71,0.00,,,0.00,,2013-03-22 06:02:00,
2013-03-22 02:13:00,26.0,18.0,29.99,WNW,297,4.0,11.0,71,0.00,,,0.00,,2013-03-22 06:13:00,
2013-03-22 02:22:00,26.0,18.0,29.99,WNW,290,5.0,11.0,71,0.00,,,0.00,,2013-03-22 06:22:00,
2013-03-22 02:32:00,26.0,18.0,29.99,WNW,295,6.0,13.0,70,0.00,,,0.00,,2013-03-22 06:32:00,
2013-03-22 02:42:00,26.0,18.0,29.99,WNW,295,6.0,13.0,70,0.00,,,0.00,,2013-03-22 06:42:00,
2013-03-22 02:52:00,26.0,18.0,29.99,WNW,294,5.0,11.0,70,0.00,,,0.00,,2013-03-22 06:52:00,
2013-03-22 03:12:00,25.0,17.0,29.99,WNW,290,6.0,12.0,71,0.00,,,0.00,,2013-03-22 07:12:00,
2013-03-22 03:22:00,25.0,17.0,29.98,WNW,287,6.0,12.0,71,0.00,,,0.00,,2013-03-22 07:22:00,
2013-03-22 03:32:00,25.0,17.0,29.98,WNW,298,5.0,10.0,71,0.00,,,0.00,,2013-03-22 07:32:00,
2013-03-22 03:42:00,25.0,17.0,29.98,WNW,298,5.0,10.0,71,0.00,,,0.00,,2013-03-22 07:42:00,
2013-03-22 03:52:00,25.0,17.0,29.98,WNW,298,5.0,10.0,72,0.00,,,0.00,,2013-03-22 07:52:00,
2013-03-22 04:03:00,25.0,18.0,29.98,WNW,295,5.0,8.0,73,0.00,,,0.00,,2013-03-22 08:03:00,
2013-03-22 04:13:00,25.0,18.0,29.98,WNW,295,5.0,8.0,73,0.00,,,0.00,,2013-03-22 08:13:00,
2013-03-22 04:22:00,25.0,17.0,29.99,NW,306,4.0,9.0,72,0.00,,,0.00,,2013-03-22 08:22:00,
2013-03-22 04:32:00,25.0,17.0,29.99,WNW,293,4.0,8.0,72,0.00,,,0.00,,2013-03-22 08:32:00,
2013-03-22 04:42:00,25.0,17.0,29.99,WNW,293,4.0,8.0,72,0.00,,,0.00,,2013-03-22 08:42:00,
2013-03-22 04:52:00,25.0,17.0,29.99,WNW,288,4.0,9.0,72,0.00,,,0.00,,2013-03-22 08:52:00,
2013-03-22 05:03:00,25.0,17.0,29.99,WNW,294,4.0,8.0,72,0.00,,,0.00,,2013-03-22 09:03:00,
2013-03-22 05:12:00,25.0,17.0,29.99,WNW,294,4.0,8.0,72,0.00,,,0.00,,2013-03-22 09:12:00,
2013-03-22 05:22:00,25.0,17.0,29.99,WNW,301,5.0,8.0,72,0.00,,,0.00,,2013-03-22 09:22:00,
2013-03-22 05:33:00,25.0,17.0,29.99,NW,312,5.0,9.0,71,0.00,,,0.00,,2013-03-22 09:33:00,
2013-03-22 05:42:00,25.0,17.0,29.99,NW,312,5.0,9.0,71,0.00,,,0.00,,2013-03-22 09:42:00,
2013-03-22 05:53:00,25.0,17.0,30.00,NW,315,5.0,9.0,72,0.00,,,0.00,,2013-03-22 09:53:00,
2013-03-22 06:04:00,25.0,17.0,30.00,NW,305,5.0,8.0,72,0.00,,,0.00,,2013-03-22 10:04:00,
2013-03-22 06:12:00,25.0,17.0,30.00,NW,305,5.0,8.0,72,0.00,,,0.00,,2013-03-22 10:12:00,
2013-03-22 06:23:00,25.0,17.0,30.00,WNW,301,4.0,9.0,72,0.00,,,0.00,,2013-03-22 10:23:00,
2013-03-22 06:33:00,25.0,17.0,30.00,WNW,301,5.0,8.0,72,0.00,,,0.00,,2013-03-22 10:33:00,
2013-03-22 06:42:00,25.0,17.0,30.00,WNW,301,5.0,8.0,72,0.00,,,0.00,,2013-03-22 10:42:00,
2013-03-22 06:52:00,25.0,17.0,30.00,West,274,3.0,7.0,72,0.00,,,0.00,,2013-03-22 10:52:00,
2013-03-22 07:03:00,25.0,17.0,30.01,WNW,298,4.0,7.0,71,0.00,,,0.00,,2013-03-22 11:03:00,
2013-03-22 07:12:00,25.0,17.0,30.01,WNW,298,4.0,7.0,71,0.00,,,0.00,,2013-03-22 11:12:00,
2013-03-22 07:22:00,26.0,18.0,30.01,WNW,299,5.0,8.0,71,0.00,,,0.00,,2013-03-22 11:22:00,
2013-03-22 07:33:00,26.0,18.0,30.01,WNW,288,3.0,7.0,72,0.00,,,0.00,,2013-03-22 11:33:00,
2013-03-22 07:42:00,26.0,18.0,30.01,WNW,288,3.0,7.0,72,0.00,,,0.00,,2013-03-22 11:42:00,
2013-03-22 07:52:00,25.0,17.0,30.01,WNW,301,3.0,6.0,72,0.00,,,0.00,,2013-03-22 11:52:00,
2013-03-22 08:02:00,25.0,18.0,30.01,WNW,290,3.0,6.0,73,0.00,,,0.00,,2013-03-22 12:02:00,
2013-03-22 08:12:00,25.0,18.0,30.01,WNW,290,3.0,6.0,73,0.00,,,0.00,,2013-03-22 12:12:00,
2013-03-22 08:22:00,26.0,19.0,30.02,WNW,290,2.0,6.0,74,0.00,,,0.00,,2013-03-22 12:22:00,
2013-03-22 08:32:00,26.0,19.0,30.02,West,263,3.0,6.0,74,0.00,,,0.00,,2013-03-22 12:32:00,
2013-03-22 08:42:00,26.0,19.0,30.02,West,263,3.0,6.0,74,0.00,,,0.00,,2013-03-22 12:42:00,
2013-03-22 08:52:00,26.0,19.0,30.02,WNW,295,3.0,5.0,74,0.00,,,0.00,,2013-03-22 12:52:00,
2013-03-22 09:02:00,26.0,19.0,30.02,West,281,2.0,5.0,73,0.00,,,0.00,,2013-03-22 13:02:00,
2013-03-22 09:12:00,26.0,19.0,30.02,West,281,2.0,5.0,73,0.00,,,0.00,,2013-03-22 13:12:00,
2013-03-22 09:22:00,26.0,19.0,30.02,West,274,2.0,6.0,74,0.00,,,0.00,,2013-03-22 13:22:00,
2013-03-22 09:32:00,27.0,20.0,30.02,West,263,3.0,8.0,74,0.00,,,0.00,,2013-03-22 13:32:00,
2013-03-22 09:42:00,27.0,20.0,30.02,West,263,3.0,8.0,74,0.00,,,0.00,,2013-03-22 13:42:00,
2013-03-22 09:52:00,27.0,20.0,30.02,WNW,295,3.0,10.0,73,0.00,,,0.00,,2013-03-22 13:52:00,
2013-03-22 10:03:00,28.0,20.0,30.02,NW,309,6.0,10.0,72,0.00,,,0.00,,2013-03-22 14:03:00,
2013-03-22 10:12:00,28.0,20.0,30.02,NW,309,6.0,10.0,72,0.00,,,0.00,,2013-03-22 14:12:00,
2013-03-22 10:22:00,28.0,20.0,30.02,WNW,294,4.0,9.0,71,0.00,,,0.00,,2013-03-22 14:22:00,
2013-03-22 10:32:00,28.0,19.0,30.01,West,281,5.0,9.0,69,0.00,,,0.00,,2013-03-22 14:32:00,
2013-03-22 10:43:00,28.0,19.0,30.01,West,281,5.0,9.0,69,0.00,,,0.00,,2013-03-22 14:43:00,
2013-03-22 10:52:00,29.0,19.0,30.02,WNW,297,6.0,9.0,66,0.00,,,0.00,,2013-03-22 14:52:00,
2013-03-22 11:03:00,29.0,19.0,30.02,West,263,5.0,11.0,65,0.00,,,0.00,,2013-03-22 15:03:00,
2013-03-22 11:12:00,29.0,19.0,30.02,West,263,5.0,11.0,65,0.00,,,0.00,,2013-03-22 15:12:00,
2013-03-22 11:22:00,29.0,18.0,30.02,WNW,290,6.0,10.0,64,0.00,,,0.00,,2013-03-22 15:22:00,
2013-03-22 11:33:00,30.0,19.0,30.02,WNW,298,7.0,13.0,63,0.00,,,0.00,,2013-03-22 15:33:00,
2013-03-22 11:43:00,30.0,19.0,30.02,WNW,298,7.0,13.0,63,0.00,,,0.00,,2013-03-22 15:43:00,
2013-03-22 11:52:00,30.0,19.0,30.01,WNW,294,4.0,9.0,62,0.00,,,0.00,,2013-03-22 15:52:00,
2013-03-22 12:03:00,31.0,19.0,30.01,WNW,283,6.0,11.0,61,0.00,,,0.00,,2013-03-22 16:03:00,
2013-03-22 12:13:00,31.0,18.0,30.01,WNW,284,4.0,11.0,59,0.00,,,0.00,,2013-03-22 16:13:00,
2013-03-22 12:23:00,31.0,18.0,30.01,WNW,284,4.0,11.0,59,0.00,,,0.00,,2013-03-22 16:23:00,
2013-03-22 12:32:00,32.0,20.0,30.01,WNW,298,6.0,11.0,60,0.00,,,0.00,,2013-03-22 16:32:00,
2013-03-22 12:42:00,32.0,20.0,30.01,WNW,298,6.0,11.0,60,0.00,,,0.00,,2013-03-22 16:42:00,
2013-03-22 12:52:00,32.0,19.0,30.01,WSW,253,5.0,11.0,57,0.00,,,0.00,,2013-03-22 16:52:00,
2013-03-22 13:03:00,34.0,20.0,30.01,NW,313,4.0,8.0,57,0.00,,,0.00,,2013-03-22 17:03:00,
2013-03-22 13:10:00,34.0,20.0,30.02,WNW,288,4.0,9.0,55,0.00,,,0.00,,2013-03-22 17:10:00,
2013-03-22 13:12:00,34.0,20.0,30.01,NW,322,4.0,10.0,56,0.00,,,0.00,,2013-03-22 17:12:00,
2013-03-22 13:23:00,34.0,20.0,30.01,NW,322,4.0,10.0,56,0.00,,,0.00,,2013-03-22 17:23:00,
2013-03-22 13:32:00,34.0,20.0,30.02,WNW,288,4.0,9.0,55,0.00,,,0.00,,2013-03-22 17:32:00,
2013-03-22 13:42:00,34.0,20.0,30.02,WNW,288,4.0,9.0,55,0.00,,,0.00,,2013-03-22 17:42:00,
2013-03-22 13:52:00,34.0,20.0,30.02,WNW,288,4.0,9.0,55,0.00,,,0.00,,2013-03-22 17:52:00,
2013-03-22 14:02:00,34.0,20.0,30.02,WNW,288,4.0,9.0,55,0.00,,,0.00,,2013-03-22 18:02:00,
2013-03-22 14:22:00,36.0,21.0,30.01,WSW,240,6.0,10.0,53,0.00,,,0.00,,2013-03-22 18:22:00,
2013-03-22 14:33:00,36.0,20.0,30.01,WNW,285,4.0,11.0,51,0.00,,,0.00,,2013-03-22 18:33:00,
2013-03-22 14:42:00,36.0,20.0,30.01,WNW,285,4.0,11.0,51,0.00,,,0.00,,2013-03-22 18:42:00,
2013-03-22 14:52:00,37.0,20.0,30.01,WNW,297,4.0,9.0,50,0.00,,,0.00,,2013-03-22 18:52:00,
2013-03-22 15:02:00,37.0,21.0,30.00,SW,225,4.0,10.0,51,0.00,,,0.00,,2013-03-22 19:02:00,
2013-03-22 15:12:00,37.0,21.0,30.00,SW,225,4.0,10.0,51,0.00,,,0.00,,2013-03-22 19:12:00,
2013-03-22 15:22:00,38.0,21.0,30.00,SW,231,4.0,12.0,49,0.00,,,0.00,,2013-03-22 19:22:00,
2013-03-22 15:32:00,39.0,22.0,29.99,SW,215,4.0,12.0,51,0.00,,,0.00,,2013-03-22 19:32:00,
2013-03-22 15:43:00,39.0,22.0,29.99,SW,215,4.0,12.0,51,0.00,,,0.00,,2013-03-22 19:43:00,
2013-03-22 15:52:00,39.0,21.0,29.99,WSW,256,3.0,10.0,48,0.00,,,0.00,,2013-03-22 19:52:00,
2013-03-22 16:02:00,38.0,20.0,29.98,WSW,254,5.0,11.0,48,0.00,,,0.00,,2013-03-22 20:02:00,
2013-03-22 16:13:00,38.0,20.0,29.98,WSW,254,5.0,11.0,48,0.00,,,0.00,,2013-03-22 20:13:00,
2013-03-22 16:22:00,39.0,20.0,29.98,SW,215,4.0,9.0,47,0.00,,,0.00,,2013-03-22 20:22:00,
2013-03-22 16:32:00,40.0,21.0,29.98,NW,311,3.0,14.0,47,0.00,,,0.00,,2013-03-22 20:32:00,
2013-03-22 16:43:00,40.0,21.0,29.98,NW,311,3.0,14.0,47,0.00,,,0.00,,2013-03-22 20:43:00,
2013-03-22 16:52:00,40.0,20.0,29.97,WNW,295,3.0,10.0,45,0.00,,,0.00,,2013-03-22 20:52:00,
2013-03-22 17:03:00,40.0,21.0,29.97,SW,231,5.0,9.0,46,0.00,,,0.00,,2013-03-22 21:03:00,
2013-03-22 17:12:00,41.0,20.0,29.97,WNW,283,6.0,13.0,43,0.00,,,0.00,,2013-03-22 21:12:00,
2013-03-22 17:22:00,41.0,20.0,29.97,WNW,283,6.0,13.0,43,0.00,,,0.00,,2013-03-22 21:22:00,
2013-03-22 17:33:00,41.0,22.0,29.97,WNW,284,4.0,12.0,46,0.00,,,0.00,,2013-03-22 21:33:00,
2013-03-22 17:43:00,41.0,22.0,29.97,WNW,284,4.0,12.0,46,0.00,,,0.00,,2013-03-22 21:43:00,
2013-03-22 17:53:00,41.0,22.0,29.97,SW,235,5.0,8.0,46,0.00,,,0.00,,2013-03-22 21:53:00,
2013-03-22 18:03:00,41.0,22.0,29.97,West,264,3.0,10.0,46,0.00,,,0.00,,2013-03-22 22:03:00,
2013-03-22 18:12:00,41.0,22.0,29.97,West,264,3.0,10.0,46,0.00,,,0.00,,2013-03-22 22:12:00,
2013-03-22 18:23:00,41.0,21.0,29.97,WNW,285,4.0,12.0,45,0.00,,,0.00,,2013-03-22 22:23:00,
2013-03-22 18:32:00,40.0,21.0,29.97,NW,308,4.0,9.0,47,0.00,,,0.00,,2013-03-22 22:32:00,
2013-03-22 18:43:00,40.0,21.0,29.97,NW,308,4.0,9.0,47,0.00,,,0.00,,2013-03-22 22:43:00,
2013-03-22 18:52:00,40.0,22.0,29.97,WNW,285,3.0,7.0,49,0.00,,,0.00,,2013-03-22 22:52:00,
2013-03-22 19:02:00,40.0,22.0,29.97,West,281,3.0,7.0,49,0.00,,,0.00,,2013-03-22 23:02:00,
2013-03-22 19:12:00,40.0,22.0,29.97,West,281,3.0,7.0,49,0.00,,,0.00,,2013-03-22 23:12:00,
2013-03-22 19:22:00,39.0,22.0,29.98,West,276,3.0,8.0,50,0.00,,,0.00,,2013-03-22 23:22:00,
2013-03-22 19:32:00,39.0,22.0,29.98,West,262,3.0,8.0,51,0.00,,,0.00,,2013-03-22 23:32:00,
2013-03-22 19:42:00,39.0,22.0,29.98,West,262,3.0,8.0,51,0.00,,,0.00,,2013-03-22 23:42:00,
2013-03-22 19:52:00,38.0,23.0,29.98,NW,305,3.0,6.0,54,0.00,,,0.00,,2013-03-22 23:52:00,
2013-03-22 20:02:00,37.0,22.0,29.99,West,278,2.0,6.0,55,0.00,,,0.00,,2013-03-23 00:02:00,
2013-03-22 20:12:00,37.0,22.0,29.99,West,278,2.0,6.0,55,0.00,,,0.00,,2013-03-23 00:12:00,
2013-03-22 20:23:00,37.0,22.0,29.99,West,278,2.0,6.0,55,0.00,,,0.00,,2013-03-23 00:23:00,
2013-03-22 20:33:00,34.0,23.0,30.00,WNW,294,1.0,3.0,64,0.00,,,0.00,,2013-03-23 00:33:00,
2013-03-22 20:42:00,34.0,23.0,30.00,WNW,294,1.0,3.0,64,0.00,,,0.00,,2013-03-23 00:42:00,
2013-03-22 20:52:00,32.0,22.0,30.01,WNW,293,0.0,2.0,67,0.00,,,0.00,,2013-03-23 00:52:00,
2013-03-22 21:03:00,33.0,23.0,30.01,West,270,1.0,2.0,65,0.00,,,0.00,,2013-03-23 01:03:00,
2013-03-22 21:12:00,33.0,23.0,30.01,West,270,1.0,2.0,65,0.00,,,0.00,,2013-03-23 01:12:00,
2013-03-22 21:22:00,33.0,22.0,30.02,West,281,1.0,3.0,64,0.00,,,0.00,,2013-03-23 01:22:00,
2013-03-22 21:32:00,31.0,22.0,30.02,WNW,294,1.0,2.0,69,0.00,,,0.00,,2013-03-23 01:32:00,
2013-03-22 21:42:00,31.0,22.0,30.02,WNW,294,1.0,2.0,69,0.00,,,0.00,,2013-03-23 01:42:00,
2013-03-22 21:52:00,30.0,23.0,30.03,WNW,294,1.0,2.0,74,0.00,,,0.00,,2013-03-23 01:52:00,
2013-03-22 22:02:00,29.0,22.0,30.03,WNW,291,1.0,2.0,76,0.00,,,0.00,,2013-03-23 02:02:00,
2013-03-22 22:12:00,29.0,22.0,30.03,WNW,291,1.0,2.0,76,0.00,,,0.00,,2013-03-23 02:12:00,
2013-03-22 22:22:00,29.0,23.0,30.03,WNW,291,1.0,2.0,77,0.00,,,0.00,,2013-03-23 02:22:00,
2013-03-22 22:32:00,30.0,23.0,30.03,WNW,288,1.0,3.0,76,0.00,,,0.00,,2013-03-23 02:32:00,
2013-03-22 22:42:00,30.0,23.0,30.03,WNW,288,1.0,3.0,76,0.00,,,0.00,,2013-03-23 02:42:00,
2013-03-22 22:52:00,29.0,23.0,30.03,WNW,288,1.0,2.0,78,0.00,,,0.00,,2013-03-23 02:52:00,
2013-03-22 23:02:00,28.0,23.0,30.03,NW,305,2.0,2.0,80,0.00,,,0.00,,2013-03-23 03:02:00,
2013-03-22 23:12:00,28.0,23.0,30.03,NW,305,2.0,2.0,80,0.00,,,0.00,,2013-03-23 03:12:00,
2013-03-22 23:23:00,29.0,23.0,30.03,NW,318,2.0,3.0,79,0.00,,,0.00,,2013-03-23 03:23:00,
2013-03-22 23:33:00,29.0,23.0,30.03,NW,318,2.0,3.0,79,0.00,,,0.00,,2013-03-23 03:33:00,
2013-03-22 23:43:00,29.0,23.0,30.03,NW,318,2.0,3.0,79,0.00,,,0.00,,2013-03-23 03:43:00,
2013-03-22 23:53:00,28.0,23.0,30.03,NW,317,0.0,1.0,80,0.00,,,0.00,,2013-03-23 03:53:00,